Date,TemperatureHighF,TemperatureAvgF,TemperatureLowF,DewpointHighF,DewpointAvgF,DewpointLowF,HumidityHigh,HumidityAvg,HumidityLow,PressureMaxIn,PressureMinIn,WindSpeedMaxMPH,WindSpeedAvgMPH,GustSpeedMaxMPH,PrecipitationSumIn
2013-1-1,29,19,9,15,10,3,85,68,53,0.00,40.00,6,3,20,0.00
2013-1-2,23,17,5,12,8,0,78,67,52,0.00,40.00,6,3,19,0.00
2013-1-3,44,25,4,9,2,-8,82,43,11,0.00,40.00,4,2,10,0.01
2013-1-4,53,38,27,10,4,-10,39,25,15,0.00,40.00,4,2,9,0.01
2013-1-5,36,26,18,16,11,4,74,54,32,0.00,40.00,5,3,16,0.00
2013-1-6,44,32,18,12,7,-2,72,37,20,0.00,40.00,5,3,16,0.00
2013-1-7,40,30,22,22,14,8,76,53,34,0.00,40.00,5,2,12,0.00
2013-1-8,39,31,21,21,16,10,72,53,44,0.00,40.00,7,4,25,0.00
2013-1-9,50,36,21,21,18,13,72,49,27,0.00,40.00,5,4,14,0.00
2013-1-10,45,41,36,17,12,9,40,30,23,0.00,40.00,6,4,20,0.00
2013-1-11,39,19,-3,22,10,-11,92,70,40,0.00,40.00,4,3,20,0.00
2013-1-12,9,2,-4,0,-6,-12,75,69,62,0.00,40.00,5,2,13,0.00
2013-1-13,15,3,-4,-1,-5,-10,79,68,48,0.00,40.00,4,2,11,0.01
2013-1-14,17,3,-4,0,-6,-10,81,67,44,0.00,40.00,4,2,11,0.01
2013-1-15,35,20,-2,24,12,-10,83,69,53,0.00,40.00,6,4,17,0.04
2013-1-16,41,28,22,21,17,13,85,64,37,0.00,40.00,6,4,16,0.08
2013-1-17,43,30,22,19,16,13,74,58,36,0.00,40.00,5,3,13,0.08
2013-1-18,50,36,24,15,11,8,63,36,18,0.00,40.00,5,3,16,0.06
2013-1-19,44,33,20,20,14,10,92,48,28,0.00,40.00,6,4,18,0.02
2013-1-20,29,21,9,18,10,5,93,65,44,0.00,40.00,5,3,16,0.00
2013-1-21,33,20,11,19,11,6,83,67,51,0.00,40.00,7,3,20,0.00
2013-1-22,46,33,18,11,6,1,72,34,18,0.00,40.00,5,3,15,0.00
2013-1-23,40,31,17,17,8,-3,83,41,20,0.00,40.00,4,2,10,0.00
2013-1-24,57,37,19,23,15,6,83,45,19,0.00,40.00,4,3,14,0.00
2013-1-25,53,34,22,22,17,12,85,53,22,0.00,40.00,4,2,9,0.00
2013-1-26,55,39,29,24,21,19,68,52,25,0.00,40.00,5,3,15,0.00
2013-1-27,49,38,27,29,25,19,95,60,44,0.00,40.00,6,2,14,0.00
2013-1-28,30,26,20,27,24,17,97,91,82,0.00,40.00,3,2,6,0.00
2013-1-29,30,18,5,18,9,-2,90,68,39,0.00,40.00,5,2,15,0.11
2013-1-30,26,15,2,13,5,-4,77,65,47,0.00,40.00,6,4,18,0.01
2013-1-31,25,15,5,19,5,-6,85,65,44,0.00,40.00,6,4,16,0.00
2013-2-1,39,30,23,25,22,18,95,76,54,0.00,40.00,5,3,16,0.07
2013-2-2,37,29,23,24,18,16,92,65,42,0.00,40.00,9,5,29,0.01
2013-2-3,48,32,20,18,14,7,83,52,21,0.00,40.00,6,3,21,0.00
2013-2-4,41,29,20,19,16,14,77,61,37,0.00,40.00,6,2,17,0.00
2013-2-5,42,33,30,23,21,19,68,60,43,0.00,40.00,4,3,14,0.00
2013-2-6,46,35,25,24,19,15,74,54,36,0.00,40.00,5,2,11,0.00
2013-2-7,41,29,20,18,14,11,77,55,32,0.00,40.00,5,2,12,0.00
2013-2-8,43,32,24,19,13,6,73,48,22,0.00,40.00,5,3,17,0.00
2013-2-9,38,28,19,16,12,9,79,52,35,0.00,40.00,6,4,19,0.00
2013-2-10,26,18,9,15,9,0,84,68,51,0.00,40.00,7,5,27,0.00
2013-2-11,28,14,4,9,2,-2,80,60,43,0.00,40.00,4,2,11,0.00
2013-2-12,39,26,12,16,9,-1,70,49,32,0.00,40.00,4,3,11,0.00
2013-2-13,39,28,18,29,18,9,84,66,45,0.00,40.00,7,4,23,0.01
2013-2-14,26,18,6,11,6,-3,75,59,38,0.00,40.00,8,4,23,0.01
2013-2-15,27,17,6,13,5,-3,81,61,30,0.00,40.00,6,3,16,0.01
2013-2-16,46,34,20,23,20,13,76,57,38,0.00,40.00,7,4,17,0.00
2013-2-17,46,32,23,22,18,14,76,57,30,0.00,40.00,7,4,17,0.00
2013-2-18,28,19,7,14,7,1,77,60,39,0.00,40.00,7,4,21,0.00
2013-2-19,27,16,4,14,7,-5,87,68,44,0.00,40.00,7,4,15,0.00
2013-2-20,26,16,8,13,11,4,92,80,54,0.00,40.00,5,3,12,0.00
2013-2-21,25,18,14,20,15,11,93,88,78,0.00,40.00,3,1,7,0.04
2013-2-22,32,21,12,16,11,8,90,67,39,0.00,40.00,5,2,16,0.02
2013-2-23,40,28,15,22,10,3,81,49,29,0.00,40.00,5,2,12,0.00
2013-2-24,29,23,14,23,17,8,91,77,61,0.00,40.00,5,3,12,0.03
2013-2-25,40,25,14,11,7,1,73,48,23,0.00,40.00,7,3,13,0.01
2013-2-26,34,26,20,21,15,8,76,64,51,0.00,40.00,7,4,19,0.00
2013-2-27,37,25,17,11,8,6,75,50,32,0.00,40.00,7,4,18,0.00
2013-2-28,34,24,15,21,13,8,90,63,36,0.00,40.00,5,3,12,0.00
2013-3-1,39,29,14,27,14,3,86,57,24,0.00,40.00,5,2,13,0.00
2013-3-2,51,41,31,27,25,22,82,55,34,0.00,40.00,6,3,17,0.00
2013-3-3,53,42,26,29,24,18,81,50,30,0.00,40.00,8,3,18,0.00
2013-3-4,26,17,10,18,4,-4,72,56,44,0.00,40.00,9,6,28,0.00
2013-3-5,33,18,7,5,-2,-10,67,42,19,0.00,40.00,6,3,16,0.00
2013-3-6,50,34,15,20,10,2,71,41,18,0.00,40.00,7,3,14,0.00
2013-3-7,53,40,29,26,20,18,76,47,25,0.00,40.00,7,3,13,0.00
2013-3-8,42,33,26,26,23,19,87,69,51,0.00,40.00,5,3,12,0.00
2013-3-9,37,29,21,26,18,7,85,63,35,0.00,40.00,9,5,25,0.00
2013-3-10,45,28,11,13,0,-15,80,37,9,0.00,40.00,5,3,14,0.00
2013-3-11,40,31,20,21,13,8,69,48,29,0.00,40.00,6,4,19,0.00
2013-3-12,35,24,14,9,0,-7,62,37,16,0.00,40.00,6,4,21,0.00
2013-3-13,57,42,25,23,18,3,56,40,26,0.00,40.00,5,3,14,0.00
2013-3-14,62,48,36,28,23,21,60,40,22,0.00,40.00,7,2,16,0.00
2013-3-15,62,49,38,25,21,16,57,34,17,0.00,40.00,7,3,17,0.00
2013-3-16,38,32,26,31,26,19,98,82,49,0.00,40.00,4,2,10,0.09
2013-3-17,42,29,20,33,24,10,97,82,60,0.00,40.00,8,4,21,0.23
2013-3-18,31,22,13,13,7,-4,76,54,21,0.00,40.00,8,5,22,0.08
2013-3-19,34,23,12,15,9,-1,81,56,28,0.00,40.00,6,3,15,0.00
2013-3-20,40,25,10,18,9,2,74,53,23,0.00,40.00,7,3,15,0.00
2013-3-21,43,29,23,25,20,14,91,70,46,0.00,40.00,5,2,12,0.00
2013-3-22,36,23,15,23,17,12,91,79,47,0.00,40.00,6,3,13,0.12
2013-3-23,31,17,6,12,3,-5,85,57,31,0.00,40.00,5,3,12,0.27
2013-3-24,21,12,5,1,-2,-6,75,54,33,0.00,40.00,5,3,17,0.01
2013-3-25,36,18,-2,12,1,-7,79,51,23,0.00,40.00,5,2,14,0.01
2013-3-26,44,30,15,11,5,1,65,38,19,0.00,40.00,5,3,12,0.01
2013-3-27,50,36,26,11,8,5,43,32,20,0.00,40.00,6,3,12,0.00
2013-3-28,53,44,36,31,26,20,63,50,27,0.00,40.00,5,2,10,0.00
2013-3-29,59,46,36,30,24,17,67,43,23,0.00,40.00,5,2,16,0.00
2013-3-30,50,39,29,34,27,-100,92,66,33,0.00,40.00,7,3,17,0.00
2013-3-31,54,36,22,27,21,16,90,59,31,0.00,40.00,7,3,17,0.00
2013-4-1,49,31,19,22,18,16,92,64,32,0.00,40.00,6,2,15,0.00
2013-4-2,53,38,25,22,18,14,81,48,25,0.00,40.00,7,3,15,0.00
2013-4-3,64,46,31,32,22,15,79,44,16,0.00,40.00,7,4,14,0.00
2013-4-4,57,42,30,31,26,16,90,57,30,0.00,40.00,7,4,15,0.00
2013-4-5,65,50,33,39,27,16,91,44,21,0.00,40.00,7,4,18,0.04
2013-4-6,55,45,36,35,28,22,91,54,31,0.00,40.00,7,4,16,0.04
2013-4-7,55,44,38,37,30,24,87,58,31,0.00,40.00,5,3,11,0.00
2013-4-8,45,30,10,35,26,5,97,84,62,0.00,40.00,8,3,26,0.00
2013-4-9,14,8,5,5,2,-2,80,76,67,0.00,40.00,7,5,26,0.00
2013-4-10,29,17,7,18,11,2,89,76,60,0.00,40.00,6,3,13,0.24
2013-4-11,40,25,8,28,18,4,88,74,61,0.00,40.00,7,4,23,0.06
2013-4-12,41,31,21,24,19,15,77,62,41,0.00,40.00,6,4,16,0.04
2013-4-13,50,36,20,37,26,15,96,70,35,0.00,40.00,8,4,19,0.06
2013-4-14,36,28,13,34,19,5,93,68,51,0.00,40.00,9,5,25,0.03
2013-4-15,31,20,10,17,9,2,88,64,35,0.00,40.00,6,4,17,0.00
2013-4-16,25,20,17,17,15,13,92,84,71,0.00,40.00,6,3,12,0.02
2013-4-17,30,20,12,19,15,7,89,79,62,0.00,40.00,5,3,12,0.16
2013-4-18,36,22,10,11,7,4,85,55,27,0.00,40.00,6,3,14,0.22
2013-4-19,45,31,20,27,22,11,97,72,41,0.00,40.00,6,4,15,0.09
2013-4-20,51,38,27,36,30,26,98,77,40,0.00,40.00,6,3,14,0.10
2013-4-21,45,33,27,35,25,-100,98,83,50,0.00,40.00,4,2,14,0.36
2013-4-22,28,22,11,26,15,4,96,75,52,0.00,40.00,5,4,15,0.21
2013-4-23,37,21,5,17,8,0,84,60,37,0.00,40.00,5,2,14,0.06
2013-4-24,38,29,17,21,16,8,84,61,42,0.00,40.00,7,4,23,0.03
2013-4-25,57,43,24,24,18,13,84,43,19,0.00,40.00,6,3,16,0.00
2013-4-26,62,49,36,23,20,15,52,32,20,0.00,40.00,5,3,14,0.00
2013-4-27,67,56,42,26,22,19,42,28,19,0.00,40.00,7,3,24,0.00
2013-4-28,63,50,39,42,30,20,98,50,28,0.00,40.00,6,3,15,0.17
2013-4-29,64,50,37,39,33,22,98,61,21,0.00,40.00,8,4,22,0.21
2013-4-30,48,35,26,30,24,14,95,67,32,0.00,40.00,6,3,14,0.00
2013-5-1,36,29,20,25,18,9,88,64,44,0.00,40.00,4,3,11,0.13
2013-5-2,44,33,22,21,17,9,85,53,32,0.00,40.00,6,3,15,0.07
2013-5-3,55,41,28,22,18,14,65,42,23,0.00,40.00,5,3,13,0.00
2013-5-4,52,40,29,19,15,10,55,37,25,0.00,40.00,8,3,16,0.00
2013-5-5,56,43,31,20,15,8,50,32,21,0.00,40.00,6,3,13,0.00
2013-5-6,64,49,36,26,21,16,52,36,21,0.00,40.00,6,2,13,0.00
2013-5-7,65,52,40,40,31,22,80,47,26,0.00,40.00,5,2,11,0.00
2013-5-8,64,55,46,40,33,29,77,46,28,0.00,40.00,6,4,16,0.00
2013-5-9,58,47,41,43,38,33,96,74,39,0.00,40.00,5,2,11,0.34
2013-5-10,65,50,38,42,31,-100,97,59,19,0.00,40.00,6,3,19,0.01
2013-5-11,56,44,33,29,23,-100,59,46,33,0.00,40.00,7,3,13,0.00
2013-5-12,69,56,37,37,32,24,63,43,29,0.00,40.00,5,3,12,0.00
2013-5-13,83,68,54,40,35,31,50,32,15,0.00,40.00,5,2,12,0.00
2013-5-14,77,65,54,47,38,29,45,37,27,0.00,40.00,9,4,20,0.00
2013-5-15,69,57,47,46,35,26,81,44,32,0.00,40.00,8,4,16,0.00
2013-5-16,69,51,47,51,30,-100,97,71,43,0.00,40.00,6,3,18,0.19
2013-5-17,70,58,46,54,44,-100,98,70,51,0.00,40.00,6,3,12,0.15
2013-5-18,67,56,45,54,48,43,98,76,56,0.00,40.00,6,4,16,1.16
2013-5-19,55,49,44,48,44,38,95,85,72,0.00,40.00,4,3,16,1.26
2013-5-20,51,45,38,38,36,34,93,70,58,0.00,40.00,10,7,26,0.01
2013-5-21,51,43,37,40,36,33,95,75,58,0.00,40.00,6,4,17,0.02
2013-5-22,56,44,38,45,39,35,96,82,59,0.00,40.00,7,4,17,0.01
2013-5-23,55,47,39,43,39,32,99,74,54,0.00,40.00,10,7,25,0.02
2013-5-24,75,59,47,50,39,13,97,61,10,0.00,40.00,9,6,23,0.00
2013-5-25,72,61,50,54,51,45,91,71,49,0.00,40.00,8,4,18,0.00
2013-5-26,72,60,53,54,51,47,98,76,43,0.00,40.00,6,4,15,0.00
2013-5-27,69,55,46,56,51,41,100,88,50,0.00,40.00,6,3,19,0.15
2013-5-28,66,54,42,47,38,30,83,58,30,0.00,40.00,8,4,18,0.14
2013-5-29,64,54,46,49,46,43,95,76,53,0.00,40.00,7,3,15,0.13
2013-5-30,49,46,41,46,42,36,97,88,75,0.00,40.00,9,5,25,0.18
2013-5-31,46,42,39,38,36,34,87,79,71,0.00,40.00,7,6,29,0.02
2013-6-1,60,48,38,37,32,-100,82,60,33,0.00,40.00,7,4,22,0.00
2013-6-2,68,53,37,46,40,33,88,64,40,0.00,40.00,7,4,15,0.00
2013-6-3,72,59,47,49,40,31,80,53,27,0.00,40.00,8,4,20,0.00
2013-6-4,61,49,37,38,31,26,81,51,34,0.00,40.00,5,4,13,0.00
2013-6-5,56,43,32,40,34,29,90,73,47,0.00,40.00,5,2,10,0.00
2013-6-6,64,51,37,45,41,36,96,71,49,0.00,40.00,5,2,13,0.00
2013-6-7,77,59,45,49,41,33,97,58,23,0.00,40.00,8,4,17,0.08
2013-6-8,65,56,47,49,42,34,97,65,35,0.00,40.00,7,4,18,0.53
2013-6-9,75,60,42,48,39,29,87,53,18,0.00,40.00,5,3,16,0.05
2013-6-10,83,69,54,56,49,43,82,52,27,0.00,40.00,7,4,16,0.00
2013-6-11,70,61,50,59,55,48,98,80,63,0.00,40.00,7,4,19,0.33
2013-6-12,68,56,48,54,49,45,98,78,54,0.00,40.00,6,3,13,0.33
2013-6-13,66,56,45,53,48,42,98,76,59,0.00,40.00,7,4,18,0.00
2013-6-14,77,66,53,53,44,31,80,51,20,0.00,40.00,6,4,14,0.00
2013-6-15,70,59,50,45,40,35,72,52,28,0.00,40.00,5,3,14,0.00
2013-6-16,75,62,52,56,49,43,93,66,37,0.00,40.00,6,3,16,0.00
2013-6-17,68,56,50,52,49,45,97,78,49,0.00,40.00,6,3,14,0.33
2013-6-18,74,63,50,53,50,45,95,64,43,0.00,40.00,7,4,15,0.01
2013-6-19,76,65,53,60,52,43,80,62,46,0.00,40.00,9,5,20,0.00
2013-6-20,78,66,58,59,49,28,87,60,16,0.00,40.00,6,3,15,0.00
2013-6-22,69,60,50,55,51,46,96,75,54,0.00,40.00,6,4,18,0.35
2013-6-23,70,58,43,47,40,32,89,54,24,0.00,40.00,6,3,14,0.33
2013-6-24,84,66,55,56,47,31,96,55,15,0.00,40.00,7,3,43,0.00
2013-6-25,76,68,59,51,44,36,73,44,31,0.00,40.00,7,4,14,0.00
2013-6-26,85,70,58,51,47,42,73,49,23,0.00,40.00,6,3,14,0.00
2013-6-27,83,69,59,54,50,41,71,52,25,0.00,40.00,7,4,16,0.00
2013-6-28,82,68,54,52,46,41,72,48,25,0.00,40.00,4,2,14,0.00
2013-6-29,74,61,54,53,41,-100,80,54,39,0.00,40.00,6,3,12,0.00
2013-6-30,74,62,52,50,46,40,83,58,40,0.00,40.00,5,2,14,0.00
2013-7-1,71,61,51,57,50,44,92,67,47,0.00,40.00,7,2,12,0.01
2013-7-2,75,64,53,50,46,43,77,55,38,0.00,40.00,5,2,12,0.01
2013-7-3,84,71,56,45,42,38,66,39,21,0.00,40.00,7,3,14,0.00
2013-7-4,79,66,58,59,51,39,91,61,35,0.00,40.00,5,3,19,0.33
2013-7-5,78,67,59,59,53,48,97,63,37,0.00,40.00,7,3,14,0.20
2013-7-6,79,66,55,57,52,49,94,66,39,0.00,40.00,6,3,16,0.20
2013-7-7,74,64,55,60,54,49,97,73,46,0.00,40.00,6,3,12,0.26
2013-7-8,78,64,55,61,56,50,97,76,49,0.00,40.00,7,3,14,0.49
2013-7-9,77,68,58,56,51,46,70,55,38,0.00,40.00,6,3,14,0.01
2013-7-10,83,66,52,58,48,-100,86,58,33,0.00,40.00,8,5,18,0.00
2013-7-11,90,75,62,58,53,46,88,52,22,0.00,40.00,8,4,22,0.01
2013-7-12,79,71,60,59,54,50,94,59,41,0.00,40.00,5,3,14,0.04
2013-7-13,87,71,59,62,55,45,81,60,23,0.00,40.00,7,2,14,0.03
2013-7-14,72,63,55,60,57,53,100,81,59,0.00,40.00,6,3,14,0.11
2013-7-15,76,65,56,63,60,52,100,85,55,0.00,40.00,8,4,17,0.11
2013-7-16,82,77,65,52,49,45,62,39,29,0.00,40.00,6,4,13,0.00
2013-7-17,83,71,59,56,53,49,85,55,35,0.00,40.00,7,3,16,0.00
2013-7-18,85,75,62,65,54,50,81,51,31,0.00,40.00,6,3,16,0.21
2013-7-19,80,67,56,61,54,48,95,65,40,0.00,40.00,7,4,16,0.39
2013-7-20,83,66,55,60,52,-100,96,64,33,0.00,40.00,6,3,15,0.44
2013-7-21,82,67,55,59,55,48,99,70,37,0.00,40.00,8,4,16,0.11
2013-7-22,79,68,57,58,52,46,91,60,38,0.00,40.00,7,5,24,0.21
2013-7-23,78,66,56,60,55,50,91,69,45,0.00,40.00,7,3,14,0.21
2013-7-24,78,67,58,58,54,52,88,66,47,0.00,40.00,5,3,14,0.01
2013-7-25,76,65,52,56,51,46,96,64,39,0.00,40.00,5,3,16,0.14
2013-7-26,66,56,47,54,49,42,99,78,62,0.00,40.00,5,3,14,0.24
2013-7-27,62,53,43,52,46,41,94,79,65,0.00,40.00,7,3,13,0.01
2013-7-28,69,59,51,57,53,49,99,83,59,0.00,40.00,7,2,15,0.00
2013-7-29,74,62,52,57,54,49,100,77,41,0.00,40.00,5,3,13,0.00
2013-7-30,83,65,55,57,51,40,95,65,25,0.00,40.00,6,3,15,0.04
2013-7-31,77,64,50,57,50,43,98,64,37,0.00,40.00,6,3,12,0.08
2013-8-1,78,65,56,59,52,48,92,65,40,0.00,40.00,6,3,17,0.15
2013-8-2,69,58,52,56,54,51,100,85,63,0.00,40.00,6,4,18,0.19
2013-8-3,70,61,49,60,56,49,100,86,63,0.00,40.00,8,4,18,1.20
2013-8-4,82,66,58,64,60,57,100,81,45,0.00,40.00,5,3,17,0.01
2013-8-5,80,66,54,61,52,47,99,64,40,0.00,40.00,6,3,17,0.19
2013-8-6,73,63,54,56,51,45,97,66,41,0.00,40.00,5,3,15,0.20
2013-8-7,75,62,52,55,51,47,90,69,41,0.00,40.00,6,3,22,0.13
2013-8-8,73,60,52,59,51,44,97,72,51,0.00,40.00,4,2,10,0.18
2013-8-9,72,60,52,57,51,45,99,73,47,0.00,40.00,5,3,13,0.03
2013-8-10,78,65,53,59,53,44,99,69,40,0.00,40.00,6,3,13,0.06
2013-8-11,74,61,55,60,53,44,100,75,46,0.00,40.00,6,3,16,0.26
2013-8-12,73,61,56,60,49,41,96,66,40,0.00,40.00,4,2,16,0.11
2013-8-13,71,60,53,61,55,-100,100,86,64,0.00,40.00,5,3,12,0.16
2013-8-14,76,61,51,58,49,-100,90,70,41,0.00,40.00,6,3,15,0.19
2013-8-15,76,58,52,60,43,-100,100,70,44,0.00,40.00,6,3,16,0.25
2013-8-16,81,66,54,61,54,-100,100,71,32,0.00,40.00,5,2,14,0.06
2013-8-17,87,72,60,59,47,-100,80,48,13,0.00,40.00,5,3,11,0.00
2013-8-18,80,72,64,59,56,50,77,59,44,0.00,40.00,5,2,14,0.00
2013-8-19,83,68,61,59,43,-100,83,51,31,0.00,40.00,5,3,12,0.00
2013-8-20,87,76,64,54,47,-100,70,41,27,0.00,40.00,5,2,10,0.00
2013-8-21,72,66,59,57,50,43,74,56,37,0.00,40.00,6,3,14,0.02
2013-8-22,78,66,57,59,54,47,95,68,46,0.00,40.00,6,3,14,0.02
2013-8-23,81,69,58,62,59,54,100,74,45,0.00,40.00,6,3,13,0.00
2013-8-24,85,72,62,56,48,-100,66,46,30,0.00,40.00,8,3,20,0.00
2013-8-25,84,75,66,57,50,44,67,43,29,0.00,40.00,6,3,15,0.00
2013-8-26,87,74,64,57,51,44,74,47,23,0.00,40.00,6,3,17,0.00
2013-8-27,87,72,64,53,50,48,60,49,26,0.00,40.00,5,2,12,0.00
2013-8-28,85,78,63,60,58,48,79,50,42,0.00,40.00,5,4,15,0.00
2013-8-29,86,75,67,56,50,44,58,42,29,0.00,40.00,5,3,17,0.00
2013-8-30,88,72,62,59,54,48,81,56,29,0.00,40.00,7,3,17,0.01
2013-8-31,83,68,56,56,47,-100,80,51,31,0.00,40.00,6,3,17,0.01
2013-9-1,78,64,52,46,41,33,60,44,27,0.00,40.00,6,3,14,0.00
2013-9-2,84,70,57,52,46,41,65,44,24,0.00,40.00,6,3,14,0.00
2013-9-3,89,74,66,57,53,49,71,49,29,0.00,40.00,6,3,13,0.00
2013-9-4,85,73,62,62,57,54,97,61,38,0.00,40.00,6,4,16,0.20
2013-9-5,87,72,60,64,59,54,97,66,38,0.00,40.00,6,3,12,0.20
2013-9-6,88,74,68,60,51,45,68,45,29,0.00,40.00,7,2,15,0.01
2013-9-7,85,74,64,60,52,-100,72,51,30,0.00,40.00,7,4,16,0.01
2013-9-8,82,67,57,62,59,56,100,79,43,0.00,40.00,8,3,26,0.56
2013-9-9,71,61,54,57,55,52,98,82,55,0.00,40.00,5,3,13,0.55
2013-9-10,68,59,49,52,49,44,97,72,49,0.00,40.00,5,2,13,0.00
2013-9-11,76,62,50,49,45,40,93,58,30,0.00,40.00,4,2,12,0.00
2013-9-12,71,62,55,50,45,39,69,55,43,0.00,40.00,6,3,13,0.00
2013-9-13,56,54,52,54,51,44,100,91,67,0.00,40.00,6,4,16,0.04
2013-9-14,75,60,53,59,52,-100,100,79,43,0.00,40.00,5,3,17,0.07
2013-9-15,58,52,46,52,48,45,100,86,65,0.00,40.00,5,3,14,0.01
2013-9-16,59,51,46,52,49,46,100,95,79,0.00,40.00,8,5,15,0.00
2013-9-17,83,68,52,53,46,40,100,53,22,0.00,40.00,7,3,17,0.00
2013-9-18,62,59,51,46,42,41,77,54,46,0.00,40.00,5,2,14,0.00
2013-9-19,60,50,40,44,34,30,77,57,35,0.00,40.00,6,4,17,0.00
2013-9-20,68,50,36,37,31,27,90,54,21,0.00,40.00,5,3,13,0.00
2013-9-21,82,65,46,35,26,-100,57,27,11,0.00,40.00,6,3,17,0.00
2013-9-22,80,68,54,50,38,27,85,35,25,0.00,40.00,7,3,20,0.01
2013-9-23,54,50,41,50,45,38,95,84,58,0.00,40.00,6,3,22,0.28
2013-9-24,66,54,40,40,35,30,91,53,26,0.00,40.00,8,4,17,0.06
2013-9-25,74,61,49,45,37,28,71,44,19,0.00,40.00,9,4,20,0.00
2013-9-26,67,52,40,46,39,32,81,64,29,0.00,40.00,8,4,14,0.00
2013-9-27,41,37,32,38,35,32,100,93,79,0.00,40.00,8,3,14,0.18
2013-9-28,57,42,29,34,29,-100,99,67,37,0.00,40.00,6,3,19,0.05
2013-9-29,67,54,43,35,32,30,73,47,25,0.00,40.00,8,4,22,0.01
2013-9-30,74,58,46,41,33,30,76,43,22,0.00,40.00,10,5,37,0.00
2013-10-1,61,55,52,35,33,32,49,42,37,0.00,40.00,5,3,16,0.00
2013-10-2,63,51,43,38,33,28,65,50,34,0.00,40.00,7,4,16,0.00
2013-10-3,43,39,31,36,34,30,99,83,62,0.00,40.00,7,5,20,0.05
2013-10-4,31,26,23,31,26,22,99,97,95,0.00,40.00,7,6,29,0.05
2013-10-5,32,25,22,31,24,21,100,96,95,0.00,40.00,9,7,28,0.38
2013-10-6,62,50,35,38,34,31,100,56,32,0.00,40.00,6,3,14,0.02
2013-10-7,72,54,41,33,29,24,67,40,18,0.00,40.00,4,3,10,0.01
2013-10-8,68,51,43,37,31,27,71,48,25,0.00,40.00,5,2,11,0.00
2013-10-9,51,44,38,34,28,24,78,55,35,0.00,40.00,9,5,15,0.00
2013-10-10,58,46,38,45,40,32,100,81,60,0.00,40.00,5,2,11,0.01
2013-10-11,44,39,30,44,34,23,100,83,61,0.00,40.00,10,6,29,1.29
2013-10-12,49,36,26,31,24,-100,96,66,37,0.00,40.00,5,3,14,0.01
2013-10-13,54,42,31,40,36,28,97,80,57,0.00,40.00,5,3,13,0.00
2013-10-14,44,36,27,42,33,21,100,90,76,0.00,40.00,6,4,21,0.65
2013-10-15,34,29,27,26,22,19,84,73,60,0.00,40.00,6,4,21,0.01
2013-10-16,54,36,24,25,17,2,81,50,16,0.00,40.00,5,2,10,0.00
2013-10-17,40,31,24,27,19,14,81,64,38,0.00,40.00,5,3,16,0.00
2013-10-18,34,28,23,23,21,18,92,73,55,0.00,40.00,5,3,14,0.00
2013-10-19,53,40,30,28,24,-100,74,56,36,0.00,40.00,6,4,20,0.00
2013-10-20,43,36,28,31,27,22,90,70,47,0.00,40.00,6,4,19,0.00
2013-10-21,48,36,25,35,30,23,93,78,59,0.00,40.00,6,4,16,0.00
2013-10-22,53,42,38,35,33,32,81,70,47,0.00,40.00,5,3,17,0.00
2013-10-23,52,43,36,35,31,27,88,64,45,0.00,40.00,6,3,12,0.00
2013-10-24,49,38,32,35,32,27,100,83,48,0.00,40.00,4,2,11,0.00
2013-10-25,69,48,34,39,33,25,92,62,22,0.00,40.00,4,2,15,0.00
2013-10-26,59,46,35,29,22,-100,58,41,28,0.00,40.00,6,3,17,0.00
2013-10-27,62,47,30,33,26,20,98,47,24,0.00,40.00,6,3,18,0.00
2013-10-28,30,23,19,29,22,18,99,96,93,0.00,40.00,6,4,18,0.00
2013-10-29,29,24,19,29,24,18,99,97,94,0.00,40.00,4,2,9,0.00
2013-10-30,43,33,25,37,30,24,100,91,62,0.00,40.00,5,2,11,0.10
2013-10-31,44,36,31,31,25,21,96,67,51,0.00,40.00,6,4,23,0.10
2013-11-1,42,32,26,30,16,-100,95,59,38,0.00,40.00,8,5,23,0.01
2013-11-2,51,37,26,26,20,-100,70,53,30,0.00,40.00,7,3,17,0.01
2013-11-3,48,42,30,28,24,18,80,50,37,0.00,40.00,6,3,23,0.00
2013-11-4,37,29,23,24,17,12,95,62,37,0.00,40.00,4,3,11,0.00
2013-11-5,29,22,15,24,19,8,95,87,70,0.00,40.00,5,2,11,0.00
2013-11-6,39,27,15,26,18,10,81,68,54,0.00,40.00,5,3,23,0.25
2013-11-7,45,32,20,28,22,15,92,67,43,0.00,40.00,4,2,11,0.14
2013-11-8,45,40,35,28,23,18,72,51,39,0.00,40.00,8,5,22,0.04
2013-11-9,45,33,27,27,21,-100,85,63,40,0.00,40.00,3,2,11,0.00
2013-11-10,58,43,28,29,25,20,81,52,31,0.00,40.00,5,2,14,0.00
2013-11-11,39,23,17,28,22,15,98,93,65,0.00,40.00,4,2,12,0.00
2013-11-12,55,38,17,23,15,-6,95,44,12,0.00,40.00,5,3,13,0.00
2013-11-13,59,48,37,35,22,11,93,38,22,0.00,40.00,4,2,11,0.03
2013-11-14,47,35,27,35,27,21,99,74,45,0.00,40.00,4,2,12,0.04
2013-11-15,49,37,30,27,23,17,76,58,32,0.00,40.00,6,2,13,0.01
2013-11-16,40,30,23,24,19,-100,90,67,45,0.00,40.00,6,2,19,0.00
2013-11-17,36,28,23,25,16,7,93,61,39,0.00,40.00,7,3,21,0.03
2013-11-18,49,36,23,20,15,7,58,43,29,0.00,40.00,5,2,14,0.01
2013-11-19,52,43,37,26,21,17,51,41,35,0.00,40.00,7,3,18,0.00
2013-11-20,50,36,16,28,22,9,94,58,41,0.00,40.00,7,4,15,0.00
2013-11-21,19,11,5,9,2,-17,85,69,27,0.00,40.00,4,2,7,0.00
2013-11-22,38,21,9,6,-7,-22,55,30,9,0.00,40.00,4,2,13,0.09
2013-11-23,37,25,16,10,5,-100,61,44,29,0.00,40.00,5,2,14,0.01
2013-11-24,58,36,24,29,14,2,70,43,17,0.00,40.00,4,3,14,0.00
2013-11-25,40,31,25,21,17,13,72,56,40,0.00,40.00,5,3,13,0.00
2013-11-26,39,27,17,19,14,10,75,59,34,0.00,40.00,5,2,13,0.00
2013-11-27,55,38,28,20,16,10,73,43,21,0.00,40.00,5,2,16,0.00
2013-11-28,41,32,25,23,19,15,79,61,34,0.00,40.00,6,3,13,0.00
2013-11-29,56,42,32,23,18,16,69,40,21,0.00,40.00,4,2,14,0.00
2013-11-30,48,38,33,23,19,-100,67,49,35,0.00,40.00,3,1,8,0.00
2013-12-1,46,36,32,26,24,23,72,62,45,0.00,40.00,5,2,16,0.00
2013-12-2,49,37,31,31,27,23,100,68,43,0.00,40.00,5,3,15,0.00
2013-12-3,31,16,5,31,14,1,100,91,84,0.00,40.00,4,2,10,0.00
2013-12-4,7,1,-6,1,-5,-13,84,74,63,0.00,40.00,6,3,16,0.00
2013-12-5,9,-6,-12,-9,-16,-20,74,64,40,0.00,40.00,3,2,10,0.00
2013-12-6,6,-7,-14,-9,-17,-21,76,62,40,0.00,40.00,4,2,9,0.00
2013-12-7,5,-6,-13,-4,-13,-100,79,73,64,0.00,40.00,4,2,9,0.00
2013-12-8,16,-2,-8,2,-10,-16,78,69,46,0.00,40.00,5,2,12,0.03
2013-12-9,14,5,-6,11,-4,-16,89,67,38,0.00,40.00,6,4,19,0.01
2013-12-10,27,15,4,17,8,-4,86,73,61,0.00,40.00,5,3,19,0.02
2013-12-11,28,14,2,9,2,-4,85,61,40,0.00,40.00,4,3,11,0.11
2013-12-12,46,28,17,18,12,2,64,51,32,0.00,40.00,4,2,10,0.13
2013-12-13,38,31,24,20,18,13,81,57,43,0.00,40.00,4,2,12,0.01
2013-12-14,37,28,23,22,18,-100,79,67,54,0.00,40.00,5,4,15,0.00
2013-12-15,46,35,26,22,20,17,76,56,38,0.00,40.00,5,3,18,0.00
2013-12-16,46,36,28,21,18,17,66,50,34,0.00,40.00,7,4,17,0.00
2013-12-17,47,34,25,21,19,17,75,54,34,0.00,40.00,6,3,14,0.00
2013-12-18,59,41,26,22,19,17,75,44,19,0.00,40.00,5,3,16,0.00
2013-12-19,26,15,3,20,12,-1,97,86,75,0.00,40.00,5,2,11,0.00
2013-12-20,32,14,4,15,4,0,88,70,32,0.00,40.00,3,1,9,0.27
2013-12-21,26,17,11,16,8,-100,91,71,48,0.00,40.00,3,1,7,0.01
2013-12-22,24,12,1,11,3,-7,81,67,49,0.00,40.00,4,2,11,0.01
2013-12-23,30,16,-2,26,8,-11,88,70,46,0.00,40.00,4,3,12,0.01
2013-12-24,34,28,19,26,20,11,88,72,42,0.00,40.00,6,4,21,0.00
2013-12-25,33,24,15,15,11,6,76,58,39,0.00,40.00,5,3,14,0.00
2013-12-26,46,34,26,22,17,6,70,50,33,0.00,40.00,6,3,17,0.02
2013-12-27,55,42,32,28,24,20,65,49,33,0.00,40.00,4,3,11,0.01
2013-12-28,41,28,4,23,11,-100,87,52,33,0.00,40.00,6,3,18,0.00
2013-12-29,31,16,1,17,8,-3,87,73,46,0.00,40.00,5,2,12,0.00
2013-12-30,33,26,20,21,19,17,89,74,52,0.00,40.00,6,4,19,0.00
2013-12-31,38,30,20,31,22,14,89,73,61,0.00,40.00,4,2,13,0.00
2014-1-1,32,23,13,25,15,10,91,70,48,0.00,40.00,4,2,13,0.00
2014-1-2,37,25,15,19,15,12,89,67,42,0.00,40.00,5,2,12,0.00